TimeEDT,TemperatureF,Dew PointF,Humidity,Sea Level PressureIn,VisibilityMPH,Wind Direction,Wind SpeedMPH,Gust SpeedMPH,PrecipitationIn,Events,Conditions,WindDirDegrees,DateUTC
12:46 AM,73.4,71.6,94,29.86,8.0,SSE,3.5,-,N/A,,Overcast,160,2013-09-02 04:46:00
12:53 AM,73.0,71.1,93,29.86,9.0,Calm,Calm,-,N/A,,Overcast,0,2013-09-02 04:53:00
1:07 AM,73.4,71.6,94,29.86,8.0,Calm,Calm,-,N/A,,Overcast,0,2013-09-02 05:07:00
1:14 AM,73.4,71.6,94,29.85,9.0,Calm,Calm,-,N/A,,Overcast,0,2013-09-02 05:14:00
1:22 AM,73.4,71.6,94,29.85,9.0,Calm,Calm,-,N/A,,Overcast,0,2013-09-02 05:22:00
1:53 AM,73.9,71.1,91,29.84,10.0,South,4.6,-,N/A,,Overcast,190,2013-09-02 05:53:00
2:53 AM,73.0,71.1,93,29.83,10.0,Calm,Calm,-,N/A,,Overcast,0,2013-09-02 06:53:00
3:53 AM,73.0,72.0,96,29.83,1.8,Calm,Calm,-,0.08,Rain,Heavy Rain,0,2013-09-02 07:53:00
4:01 AM,73.4,71.6,94,29.83,4.0,Calm,Calm,-,0.00,Rain,Light Rain,0,2013-09-02 08:01:00
4:31 AM,73.4,71.6,94,29.82,2.5,Calm,Calm,-,0.04,Rain,Light Rain,0,2013-09-02 08:31:00
4:33 AM,73.4,71.6,94,29.82,5.0,Calm,Calm,-,0.04,Rain,Light Rain,0,2013-09-02 08:33:00
4:44 AM,73.4,71.6,94,29.82,6.0,East,4.6,-,0.04,Rain,Light Rain,90,2013-09-02 08:44:00
4:53 AM,73.0,71.1,93,29.81,6.0,ESE,4.6,-,0.04,,Mostly Cloudy,120,2013-09-02 08:53:00
5:01 AM,73.4,71.6,94,29.82,7.0,SE,4.6,-,N/A,Thunderstorm,Mostly Cloudy,130,2013-09-02 09:01:00
5:16 AM,73.4,71.6,94,29.82,8.0,SSE,3.5,-,N/A,,Mostly Cloudy,160,2013-09-02 09:16:00
5:21 AM,73.4,71.6,94,29.83,8.0,South,3.5,-,N/A,,Mostly Cloudy,190,2013-09-02 09:21:00
5:53 AM,72.0,71.1,97,29.82,8.0,South,3.5,-,N/A,,Mostly Cloudy,170,2013-09-02 09:53:00
6:00 AM,71.6,71.6,100,29.82,8.0,South,4.6,-,N/A,,Mostly Cloudy,170,2013-09-02 10:00:00
6:10 AM,71.6,71.6,100,29.83,8.0,South,4.6,-,N/A,,Scattered Clouds,180,2013-09-02 10:10:00
6:18 AM,73.4,71.6,94,29.83,8.0,South,4.6,-,N/A,,Mostly Cloudy,180,2013-09-02 10:18:00
6:27 AM,73.4,71.6,94,29.83,8.0,South,5.8,-,0.01,Rain-Thunderstorm,Light Rain,190,2013-09-02 10:27:00
6:53 AM,72.0,69.1,91,29.84,6.0,SSE,10.4,18.4,0.02,Rain-Thunderstorm,Light Rain,160,2013-09-02 10:53:00
7:01 AM,71.6,68.0,88,29.83,7.0,SSE,8.1,18.4,0.00,Rain-Thunderstorm,Light Rain,160,2013-09-02 11:01:00
7:16 AM,69.8,66.2,88,29.83,10.0,SSE,4.6,-,0.01,,Overcast,150,2013-09-02 11:16:00
7:53 AM,70.0,68.0,93,29.82,3.0,South,3.5,-,0.06,Rain,Rain,190,2013-09-02 11:53:00
8:53 AM,71.1,68.0,90,29.81,7.0,SSE,4.6,-,0.10,Rain,Light Rain,160,2013-09-02 12:53:00
9:38 AM,73.4,71.6,94,29.81,10.0,SSE,3.5,-,0.00,,Mostly Cloudy,160,2013-09-02 13:38:00
9:53 AM,75.0,71.1,87,29.81,10.0,South,5.8,-,0.00,,Overcast,190,2013-09-02 13:53:00
10:46 AM,77.0,71.6,83,29.82,10.0,Variable,5.8,-,N/A,,Overcast,0,2013-09-02 14:46:00
10:53 AM,77.0,72.0,84,29.82,10.0,Variable,6.9,-,N/A,,Overcast,0,2013-09-02 14:53:00
11:27 AM,78.8,71.6,78,29.81,10.0,South,5.8,-,N/A,,Overcast,190,2013-09-02 15:27:00
11:53 AM,79.0,72.0,79,29.80,10.0,SSW,11.5,-,N/A,,Overcast,200,2013-09-02 15:53:00
12:53 PM,81.0,72.0,74,29.78,10.0,South,9.2,-,N/A,,Overcast,180,2013-09-02 16:53:00
1:53 PM,80.1,72.0,76,29.77,10.0,South,9.2,-,N/A,,Overcast,180,2013-09-02 17:53:00
2:53 PM,79.0,73.0,82,29.75,10.0,South,6.9,-,N/A,,Mostly Cloudy,170,2013-09-02 18:53:00
3:08 PM,78.8,73.4,83,29.74,10.0,SSE,9.2,-,N/A,,Mostly Cloudy,160,2013-09-02 19:08:00
3:47 PM,78.8,71.6,78,29.74,10.0,South,6.9,-,N/A,,Scattered Clouds,190,2013-09-02 19:47:00
3:53 PM,78.1,72.0,81,29.74,10.0,South,8.1,-,N/A,,Mostly Cloudy,180,2013-09-02 19:53:00
4:00 PM,78.8,71.6,78,29.74,10.0,South,6.9,-,N/A,,Scattered Clouds,180,2013-09-02 20:00:00
4:53 PM,75.9,68.0,76,29.73,10.0,South,11.5,-,N/A,,Clear,180,2013-09-02 20:53:00
5:53 PM,75.0,69.1,82,29.73,10.0,South,6.9,-,N/A,,Scattered Clouds,180,2013-09-02 21:53:00
6:04 PM,75.2,69.8,83,29.73,10.0,South,3.5,-,N/A,,Mostly Cloudy,170,2013-09-02 22:04:00
6:53 PM,73.9,70.0,87,29.72,10.0,Calm,Calm,-,N/A,,Mostly Cloudy,0,2013-09-02 22:53:00
7:00 PM,75.2,69.8,83,29.72,10.0,WSW,3.5,-,N/A,,Mostly Cloudy,240,2013-09-02 23:00:00
7:20 PM,75.2,71.6,89,29.73,10.0,SSW,4.6,-,N/A,,Overcast,200,2013-09-02 23:20:00
7:35 PM,73.4,71.6,94,29.72,10.0,SSE,4.6,-,N/A,,Overcast,160,2013-09-02 23:35:00
7:53 PM,73.9,71.1,91,29.72,9.0,South,4.6,-,N/A,,Overcast,170,2013-09-02 23:53:00
8:53 PM,73.9,71.1,91,29.73,7.0,SSE,4.6,-,N/A,,Mostly Cloudy,160,2013-09-03 00:53:00
9:53 PM,73.9,71.1,91,29.74,8.0,South,5.8,-,N/A,,Overcast,190,2013-09-03 01:53:00
10:53 PM,73.0,71.1,93,29.74,7.0,South,4.6,-,N/A,,Mostly Cloudy,180,2013-09-03 02:53:00
11:07 PM,73.4,71.6,94,29.74,7.0,SSW,3.5,-,N/A,,Scattered Clouds,200,2013-09-03 03:07:00
11:34 PM,73.4,71.6,94,29.73,7.0,South,4.6,-,N/A,,Mostly Cloudy,180,2013-09-03 03:34:00
11:53 PM,73.0,71.1,93,29.74,7.0,SSW,5.8,-,N/A,,Overcast,210,2013-09-03 03:53:00